Location: Castiglione Fibocchi
(43.5333°N, 11.7667°E)
Time: 18:58:36
(UTC+00:00)

Meteor 1-28 Rocket - Pass Details

Date: 15 August 2020
Orbit: 503 x 524 km, 97.3° (Epoch: 20 September)

Event Time Altitude Azimuth Distance (km) Brightness Sun altitude
Exits shadow 02:06:38 51° 161° (SSE) 665 3.5 -20.8°
Maximum altitude 02:07:32 85° 79° (E) 532 3.1 -20.6°
Drops below altitude 10° 02:11:22 10° 349° (N) 1,773 6.3 -20.2°
Sets 02:13:29 0° 349° (N) 2,667 7.3 -19.9°
